Location: Beetenbrück
(52.8113°N, 9.5946°E)
Time: 17:05:37
(UTC+00:00)

Cosmos 1898 Rocket - Pass Details

Date: 14 April 2026
Orbit: 750 x 778 km, 74.0° (Epoch: 9 May)

Event Time Altitude Azimuth Distance (km) Brightness Sun altitude
Rises 18:45:46 0° 201° (SSW) 3,224 6.7 -4.6°
Reaches altitude 10° 18:48:08 10° 201° (SSW) 2,298 6.0 -4.9°
Maximum altitude 18:53:21 84° 115° (ESE) 772 3.5 -5.7°
Drops below altitude 10° 18:58:34 10° 27° (NNE) 2,296 6.0 -6.4°
Sets 19:00:56 0° 27° (NNE) 3,222 6.7 -6.7°
